BEIDOU 8

Last updated on Sun Feb 19 2023 00:02:46 GMT+0000 (Coordinated Universal Time)

1 37384U 11013A 23048.94147488 -.00000145 00000+0 00000+0 0 9992 2 37384 60.6514 51.8324 0024514 188.8271 352.1440 1.00289426 43483
UTC large
Height (km)
Speed (km/s)
/
Latitude / Longitude
Inclination (degrees)
Orbital Period (minutes)
Azimuth
Elevation
Range (km)
Doppler Factor

Next 0 passes for location: London (51.5072 / 0.1276)

Sorry there are no passes over London.